Location: Newark
(11.6000°N, 43.1667°E)
Time: 02:56:16
(UTC+00:00)

Envisat - Pass Details

Date: 29 September 2019
Orbit: 764 x 766 km, 98.1° (Epoch: 16 October)

Event Time Altitude Azimuth Distance (km) Brightness Sun altitude
Rises 15:19:03 0° 159° (SSE) 3,220 6.0 -5.7°
Reaches altitude 10° 15:21:23 10° 156° (SSE) 2,294 5.2 -6.3°
Maximum altitude 15:26:20 58° 77° (ENE) 884 3.0 -7.5°
Drops below altitude 10° 15:31:18 10° 359° (N) 2,293 5.5 -8.7°
Sets 15:33:37 0° 355° (N) 3,218 6.3 -9.3°
